Back to catalog

FENGYUN 1C DEB

AliveSSO
NORAD 31949·DEBRIS·🇨🇳 China

Launched May 10, 1999 from Taiyuan Satellite Launch Center

Loading…

Next Passes (next 24 hours)

TLE

AgingSource: Space-Track

Epoch: Sep 9, 2026, 18:08 UTC

1 31949U 99025CNA 26252.75575271  .00000337  00000-0  17332-3 0  9999
2 31949  98.5716 233.2436 0126249 151.5225 209.2925 14.17276281993438

Track FENGYUN 1C DEB in real time with AllMySat

Download on the App Store